Simultaneous Nadir Overpasses (SNOs) Predictions

Prediction of SNOs between NOAA-19 and METOP-C Satellite Orbit:

Table of predicted SNOs for the next 14.0 days since TLE Epoch: 3/25/2023
Index Date (NOAA-19) Time (NOAA-19) Lat,Lon (NOAA-19) SZA (NOAA-19 ) Date (METOP-C) Time (METOP-C) Lat,Lon (METOP-C) SZA (METOP-C ) Distance(km) Time Diff (sec)
1 03/30/2023 16:36:06 -80.93, 145.67 101.43 03/30/2023 16:37:12 -80.93, 145.58 101.42 1.66 66
2 03/30/2023 17:27:07 80.93, -47.14 78.56 03/30/2023 17:27:52 80.93, -47.01 78.59 2.28 45
3 03/30/2023 18:18:05 -80.93, 120.28 101.45 03/30/2023 18:18:34 -80.92, 120.11 101.46 3.25 29
4 03/30/2023 19:09:05 80.93, -72.16 78.58 03/30/2023 19:09:13 80.94, -72.12 78.59 1.20 8
5 03/30/2023 20:00:04 -80.93, 94.89 101.46 03/30/2023 19:59:55 -80.93, 95.00 101.46 1.89 9
6 03/30/2023 20:51:04 80.93, -97.56 78.56 03/30/2023 20:50:35 80.94, -97.59 78.55 0.63 29
7 03/30/2023 21:42:03 -80.93, 69.50 101.48 03/30/2023 21:41:17 -80.93, 69.53 101.50 0.94 46



Historial Predications of SNOs between NOAA-19 and METOP-C
